Location: Newark
(31.8769°N, 91.1411°W)
Time: 13:27:01
(UTC+00:00)

N. Korean satellite - Visible Passes

Search period start: 24 January 2020 00:00
Search period end: 03 February 2020 00:00
Orbit: 454 x 507 km, 97.2° (Epoch: 23 January)

Date Brightness Start Highest point End Pass type
(mag) Time Alt. Az. Time Alt. Az. Time Alt. Az.
24 Jan 9.7 10:58:30 10° NE 11:00:46 16° E 11:03:04 10° SE visible
24 Jan 7.8 12:31:17 10° NNW 12:34:03 21° WNW 12:36:52 10° SW visible
25 Jan 6.7 12:05:12 10° N 12:08:41 49° WNW 12:12:12 10° SSW visible
26 Jan 10.0 00:11:02 10° WSW 00:12:31 12° W 00:14:00 10° WNW visible
26 Jan 6.9 11:39:39 10° NNE 11:43:14 66° E 11:46:51 10° S visible
27 Jan 8.8 11:14:35 10° NE 11:17:43 27° E 11:20:52 10° SSE visible
28 Jan 10.0 10:50:31 10° ENE 10:52:07 12° E 10:53:43 10° ESE visible
28 Jan 7.5 12:22:21 10° NNW 12:25:29 28° WNW 12:28:39 10° SW visible
29 Jan 6.5 11:56:28 10° N 12:00:05 67° WNW 12:03:43 10° SSW visible
30 Jan 9.8 00:01:37 10° SW 00:03:48 16° W 00:06:02 10° NW visible
30 Jan 7.6 11:31:04 10° NNE 11:34:36 48° E 11:38:10 10° S visible
31 Jan 9.3 11:06:13 10° NE 11:09:03 21° E 11:11:54 10° SSE visible
01 Feb 7.1 12:13:30 10° N 12:16:53 37° WNW 12:20:17 10° SW visible
02 Feb 6.6 11:47:46 10° N 11:51:27 90° SE 11:55:09 10° SSW visible
